Location: Unspecified
(0.0000°N, 0.0000°E)
Time: 04:03:33
(UTC+00:00)

N. Korean satellite - Pass Details

Date: 26 September 2022
Orbit: 427 x 468 km, 97.3° (Epoch: 25 September)

Event Time Altitude Azimuth Distance (km) Brightness Sun altitude
Rises 04:54:40 0° 8° (N) 2,375 10.2 -14.2°
Reaches altitude 10° 04:56:39 10° 7° (N) 1,515 9.1 -13.7°
Maximum altitude 04:59:53 75° 280° (W) 447 6.2 -12.9°
Drops below altitude 10° 05:03:09 10° 195° (SSW) 1,534 9.0 -12.1°
Sets 05:05:11 0° 193° (SSW) 2,409 10.0 -11.6°
